Global Triumph — V7DU5 — position and weather

sailwx.info

Track history (hours):
 
Tides and Currents Weather Stations Pressure Air Temp Water Temp Dewpoint Dewpoint Depression Visibility Wind Speed Wind Dir Waves Ship Positions

Global Triumph

Last reported at 2017-Apr-25 14:52 UTC. Time now 2017-Apr-26 05:50 UTC.
Position N 31°20' E 122°34'.

Length 225 m; draft 6.9 m.

Type: Cargo ship. MMSI: 538001709.

Date/timePositionNaut miles runAvg speedWind from/ knotsBaromVisibWave heightAir tempDewpointWater temp
2017-Apr-25 14:52N 31°20' E 122°34'1 2.2
2017-Apr-25 14:25N 31°19' E 122°35'1 1.3
2017-Apr-25 13:30N 31°20' E 122°36'510.4
2017-Apr-25 13:00N 31°25' E 122°38'713.4
2017-Apr-25 12:30N 31°31' E 122°41'814.5
2017-Apr-25 11:59N 31°38' E 122°44'1015.2
2017-Apr-25 11:21N 31°47' E 122°49'616.3
2017-Apr-25 11:00N 31°51' E 122°54'816.3
2017-Apr-25 10:30N 31°56' E 123°01'916.8
2017-Apr-25 10:00N 32°02' E 123°09'816.7
2017-Apr-25 09:30N 32°07' E 123°16'  
Track history (hours):
 
Tides and Currents Weather Stations Pressure Air Temp Water Temp Dewpoint Dewpoint Depression Visibility Wind Speed Wind Dir Waves Ship Positions

Global Triumph

Last reported at 2017-Apr-25 14:52 UTC. Time now 2017-Apr-26 05:50 UTC.
Position N 31°20' E 122°34'.

Length 225 m; draft 6.9 m.

Type: Cargo ship. MMSI: 538001709.

Date/timePositionNaut miles runAvg speedWind from/ knotsBaromVisibWave heightAir tempDewpointWater temp
2017-Apr-25 14:52N 31°20' E 122°34'1 2.2
2017-Apr-25 14:25N 31°19' E 122°35'1 1.3
2017-Apr-25 13:30N 31°20' E 122°36'510.4
2017-Apr-25 13:00N 31°25' E 122°38'713.4
2017-Apr-25 12:30N 31°31' E 122°41'814.5
2017-Apr-25 11:59N 31°38' E 122°44'1015.2
2017-Apr-25 11:21N 31°47' E 122°49'616.3
2017-Apr-25 11:00N 31°51' E 122°54'816.3
2017-Apr-25 10:30N 31°56' E 123°01'916.8
2017-Apr-25 10:00N 32°02' E 123°09'816.7
2017-Apr-25 09:30N 32°07' E 123°16'  

Dump ship's entire track history